Location: Caltech
(34.1382°N, 118.1253°W)
Time: 00:47:31
(UTC-07:00)

Cosmos 2237 Rocket - Visible Passes

Search period start: 27 June 2016 00:00
Search period end: 07 July 2016 00:00
Orbit: 834 x 851 km, 71.0° (Epoch: 26 June)

Date Brightness Start Highest point End Pass type
(mag) Time Alt. Az. Time Alt. Az. Time Alt. Az.
27 Jun 4.7 01:14:07 10° WNW 01:14:10 10° WNW 01:14:10 10° WNW visible
27 Jun 2.2 23:12:13 10° NNW 23:17:50 70° ENE 23:17:50 70° ENE visible
28 Jun 4.6 00:58:57 10° WNW 00:59:39 11° W 00:59:39 11° W visible
28 Jun 2.2 22:57:24 10° NNW 23:03:06 66° ENE 23:03:21 65° E visible
29 Jun 4.5 00:43:50 10° WNW 00:45:10 12° W 00:45:10 12° W visible
29 Jun 2.2 22:42:36 10° NNW 22:48:16 63° ENE 22:48:54 58° E visible
30 Jun 4.4 00:28:47 10° WNW 00:30:43 14° W 00:30:43 14° W visible
30 Jun 2.3 22:27:48 10° NNW 22:33:27 59° ENE 22:34:29 51° ESE visible
01 Jul 4.4 00:13:45 10° WNW 00:16:19 15° W 00:16:19 15° W visible
01 Jul 2.4 22:13:00 10° NNW 22:18:38 56° ENE 22:20:07 43° ESE visible
01 Jul 4.3 23:58:45 10° WNW 00:01:57 16° W 00:01:57 16° W visible
02 Jul 2.5 21:58:13 10° N 22:03:48 53° ENE 22:05:47 36° ESE visible
02 Jul 4.2 23:43:46 10° WNW 23:47:19 17° W 23:47:37 17° WSW visible
03 Jul 2.6 21:43:26 10° N 21:48:58 50° ENE 21:51:29 30° SE visible
03 Jul 4.1 23:28:48 10° WNW 23:32:32 18° W 23:33:19 18° WSW visible
04 Jul 2.6 21:28:39 10° N 21:34:09 48° ENE 21:37:14 25° SE visible
04 Jul 4.1 23:13:51 10° NW 23:17:45 19° W 23:19:05 18° WSW visible
05 Jul 2.7 21:13:52 10° N 21:19:20 45° ENE 21:23:02 20° SE visible
05 Jul 4.1 22:58:54 10° NW 23:02:58 20° W 23:04:52 17° SW visible
06 Jul 2.8 20:59:05 10° N 21:04:30 43° ENE 21:08:52 15° SE visible
06 Jul 4.1 22:43:59 10° NW 22:48:11 21° W 22:50:43 16° SW visible
